www.pogodaiklimat.ru

Погода и климат >> Архив погоды >> Россия >> Крым >> Евпатория


ПОГОДА в Евпатории

АРХИВ ПОГОДЫ в Евпатории

Время (UTC), дата Ветер
(напр.,м/с)
 
Видим.   Явления Облачность Т
(С)
Тd
(С)
f
(%)
Тe
(С)
Тes
(С)
Комфортность P
(гПа)
Po
(гПа)
Тmin
(С)
Tmax
(С)
R
(мм)
R24
(мм)
S
(см)
18 9.08 СЗ 6 20 км ясно +28.8 +19.7 58 +35 +35 очень
душно
1017.1 1016.0 +34.3
21 9.08 СЗ 5 10 км ясно +25.4 +20.4 74 +31 +31 очень
душно
1017.2 1016.0
00 10.08 СВ 2 10 км ясно +25.2 +21.3 79 +32 +32 очень
душно
1017.2 1016.0
03 10.08 В 2 20 км 1 балл +24.1 +20.8 82 +30 +30 очень
душно
1017.2 1016.0 +24.0
06 10.08 В 3 20 км ясно +26.7 +21.4 73 +34 +40 очень
душно
1017.1 1016.0 +23.7
09 10.08 Ю 2 20 км 2 балла +31.9 +21.4 54 +40 +53 опасность
солнечного
удара
1015.8 1014.7
12 10.08 З 4 20 км 1 балл +34.8 +18.8 39 +40 +47 очень
душно
1014.4 1013.3
15 10.08 В 9
{11}
20 км ясно +32.2 +21.7 54 +41 +41 опасность
перегрева
1014.4 1013.3
18 10.08 В 11
{14}
20 км 2 балла +29.6 +19.6 55 +36 +36 очень
душно
1015.8 1014.7 +36.3
21 10.08 В 5
{13}
10 км 7 баллов +27.0 +21.0 70 +34 +34 очень
душно
1015.8 1014.7
00 11.08 СВ 6
{10}
10 км ясно +25.8 +19.9 70 +32 +32 очень
душно
1014.4 1013.3
03 11.08 СВ 6 20 км ясно +25.1 +20.1 74 +31 +31 очень
душно
1014.5 1013.3 +24.9
06 11.08 СВ 8
{11}
20 км ясно +27.0 +19.3 63 +33 +34 очень
душно
1014.4 1013.3 +24.9
09 11.08 СВ 9
{13}
20 км ясно +30.8 +18.2 47 +35 +37 очень
душно
1013.1 1012.0
12 11.08 СВ 10
{14}
20 км ясно +32.0 +15.9 38 +35 +35 очень
душно
1013.1 1012.0
15 11.08 СВ 9 20 км ясно +31.0 +14.0 36 1013.1 1012.0
18 11.08 СВ 6
{14}
10 км ясно +28.0 +13.1 40 +30 +30 жарко 1013.1 1012.0 +32.9
21 11.08 СВ 4 10 км 2 балла +25.3 +13.5 48 +27 +27 жарко 1013.2 1012.0
00 12.08 СВ 4 10 км ясно +24.0 +14.7 56 +27 +27 жарко 1011.9 1010.7
03 12.08 С 5 20 км ясно +23.2 +15.5 62 +27 +27 душно 1011.9 1010.7 +22.9
06 12.08 СВ 4 20 км ясно +26.7 +16.6 54 +30 +35 душно 1011.8 1010.7 +22.9
09 12.08 В 10
{14}
20 км ясно +31.1 +17.0 43 +35 +35 очень
душно
1010.4 1009.3
12 12.08 В 11
{15}
20 км ясно +31.8 +13.0 32 +33 +33 жарко 1009.1 1008.0
15 12.08 В 11
{15}
20 км ясно +30.4 +17.1 45 +34 +34 очень
душно
1009.1 1008.0
18 12.08 В 11
{15}
10 км ясно +28.4 +18.8 56 +34 +34 очень
душно
1009.1 1008.0 +32.5
21 12.08 СВ 6
{15}
10 км ясно +26.2 +19.3 66 +32 +32 очень
душно
1007.8 1006.7
00 13.08 СВ 6
{12}
10 км ясно +24.4 +18.8 71 +29 +29 душно 1006.4 1005.3
03 13.08 СВ 4 20 км ясно +24.3 +19.8 76 +30 +30 очень
душно
1006.4 1005.3 +24.2
06 13.08 СВ 7 20 км 4 балла +27.6 +19.4 61 +33 +34 очень
душно
1005.1 1004.0 +24.2
09 13.08 В 7
{10}
20 км 2 балла +30.7 +20.0 53 +37 +41 очень
душно
1005.1 1004.0
12 13.08 ЮЗ 4
{10}
20 км 2 балла +32.8 +21.3 51 +41 +47 опасность
перегрева
1005.1 1004.0
15 13.08 ЮЗ 4
{10}
20 км 7 баллов +28.2 +23.1 74 +38 +38 очень
душно
1005.1 1004.0
18 13.08 З 2 10 км ясно +26.6 +22.4 78 +35 +35 очень
душно
1006.4 1005.3 +34.1
21 13.08 Ю 2 10 км ясно +25.5 +24.3 93 +35 +35 очень
душно
1007.8 1006.7
00 14.08 ЮЗ 1 10 км ясно +24.9 +23.7 93 +34 +34 очень
душно
1006.4 1005.3
03 14.08 Ю 2 10 км 6 баллов +24.5 +23.6 95 +33 +33 очень
душно
1007.8 1006.7 +24.5
06 14.08 Ю 2 10 км 7 баллов +25.6 +23.6 89 +35 +37 очень
душно
1007.8 1006.7 +24.5
09 14.08 Ю 3 20 км 2 балла +29.0 +23.9 74 +32 +42 душно 1009.1 1008.0
12 14.08 ЮЗ 3 20 км 2 балла +29.5 +24.4 74 +41 +50 опасность
перегрева
1009.1 1008.0
15 14.08 ЮЗ 3 20 км 2 балла +28.4 +24.8 81 +41 +42 опасность
перегрева
1009.1 1008.0
18 14.08 З 1 10 км ясно +26.1 +24.1 89 +36 +36 очень
душно
1010.4 1009.3 +30.6
21 14.08 З 2 10 км 2 балла +25.0 +23.4 91 +34 +34 очень
душно
1011.8 1010.7
00 15.08 штиль 0 10 км 4 балла +23.9 +21.6 87 +31 +31 очень
душно
1010.5 1009.3
03 15.08 ЮЗ 1 10 км 2 балла +23.5 +20.6 84 +29 +29 душно 1010.5 1009.3 +23.3
06 15.08 ЮВ 3 10 км 7 баллов +26.1 +22.4 80 +34 +36 очень
душно
1011.8 1010.7 +23.3
09 15.08 Ю 2 20 км 7 баллов +28.0 +21.3 67 +35 +40 очень
душно
1011.8 1010.7
12 15.08 С 4 20 км гроза без осадков 10 баллов +28.6 +18.9 56 +34 +34 очень
душно
1011.8 1010.7
15 15.08 СЗ 2
{21}
10 км гроза, ливневой дождь 10 баллов +21.7 +20.9 95 +28 +28 душно 1013.2 1012.0 4
18 15.08 В 11
{13}
10 км зарница 10 баллов +23.4 +21.3 88 +31 +31 очень
душно
1014.5 1013.3 +31.7 5
21 15.08 С 8
{15}
10 км в посл. час гроза 10 баллов +21.5 +18.9 85 +26 +26 душно 1014.5 1013.3
00 16.08 С 5
{11}
10 км в посл. час ливневой дождь 10 баллов +21.0 +18.2 84 +25 +25 комфорт 1013.2 1012.0
03 16.08 С 6
{10}
20 км 10 баллов +23.2 +16.7 67 +28 +28 душно 1011.9 1010.7 +20.7 2
06 16.08 СВ 8
{11}
20 км 10 баллов +25.1 +21.0 78 +32 +32 очень
душно
1013.1 1012.0 +20.7 0.9
09 16.08 В 10
{14}
20 км 2 балла +29.5 +17.0 47 +33 +34 душно 1013.1 1012.0
12 16.08 В 12
{17}
20 км 1 балл +30.7 +14.3 37 +33 +33 душно 1013.1 1012.0
15 16.08 В 12
{17}
20 км 4 балла +30.4 +14.9 39 +33 +33 душно 1013.1 1012.0

 

Местоположение метеостанции Евпатория (Крым, Россия): широта 45.18 долгота 33.37 высота над уровнем моря 10 м.

В архиве по умолчанию представлена погода в Евпатории за последнюю неделю. Архивные данные за месяц целиком и за предыдущие месяцы, начиная с января 2011 года, Вы можете получить, выбрав интересующий диапазон дат из раскрывающегося списка и нажав кнопку "Ввод!".

Внимание! Время в таблицах - всемирное. Для получения местного времени необходимо прибавить поправку, которая в Евпатории равна 3 ч.

Смотрите также архив погоды в соседних городах и на ближайших метеорологических станциях:

Погода в Симферополе (Крым, Россия) (50 км)
Погода в Севастополе (город Севастополь, Россия) (64 км)
Погода в Черноморском (Крым, Россия) (65 км)
Погода в Херсонесском Маяке (город Севастополь, Россия) (67 км)
Погода в Клепинино (Крым, Россия) (74 км)
Погода в Ай-Петри (Крым, Россия) (97 км)
Погода в Хорлах (Херсонская область, Украина) (97 км)
Погода в Белогорске (Крым, Россия) (98 км)
Погода в Алуште (Крым, Россия) (99 км)
Погода в Ялте (Крым, Россия) (100 км)

Пояснения к столбцам:

Ветер - указаны скорость ветра в м/с - средняя за 10 мин, порывы в срок и между сроками (в фигурных скобках) и направление, откуда дует ветер: С - северный, СВ - северо-восточный, В - восточный, ЮВ - юго-восточный, Ю - южный, ЮЗ - юго-западный, З - западный, СЗ - северо-западный.
Видимость - горизонтальная дальность видимости в метрах или километрах. При видимости от 1 до 10 км при отсутствии осадков обычно наблюдается дымка, при ухудшении видимости до 1 км и менее - туман. В сухую погоду видимость может ухудшаться дымом, пылью или мглою.
Явления - указаны атмосферные явления, наблюдавшиеся в срок или в последний час перед сроком; фигурными скобками обозначены явления, наблюдавшиеся между сроками (за 1-3 часа до срока); квадратными скобками обозначены град или гололедные отложения с указанием их диаметра в мм.
Облачность - указаны через наклонную черту общая и нижняя облачность в баллах и высота нижней границы облаков в метрах; квадратными скобками обозначены формы облаков: Ci - перистые, Cs - перисто-слоистые, Cc - перисто-кучевые, Ac - высококучевые, As - высокослоистые, Sc - слоисто-кучевые, Ns - слоисто-дождевые, Cu - кучевые, Cb - кучево-дождевые. Подробнее классификацию облаков см. в Атласе облаков (PDF).
T - Температура воздуха - температура, измеренная на высоте 2 м над землей.
Td - Температура точки росы - температура, при понижении до которой содержащийся в воздухе водяной пар достигнет насыщения.
f - Относительная влажность воздуха - влажноcть воздуха, измеренная на высоте 2 м над землей.
Te - Эффективная температура - температура, которую ощущает одетый по сезону человек в тени. Характеристика душности погоды. При расчете учитывается влияние влажности воздуха и скорости ветра на теплоощущения человека.
Tes - Эффективная температура на солнце - температура, которую ощущает человек, с поправкой на солнечный нагрев. Характеристика знойности погоды. Зависит от высоты солнца над горизонтом, облачности и скорости ветра. Ночью, в пасмурную погоду, а также при ветре 12 м/с и более поправка равна нулю.
P - Атмосферное давление - приведенное к уровню моря атмосферное давление.
Po - Атмосферное давление - измеренное на уровне метеостанции атмосферное давление.
Tmin - Минимальная температура - минимум температуры воздуха на высоте 2 м над землей.
Tmax - Максимальная температура - максимум температуры воздуха на высоте 2 м над землей.
R - Количество осадков - Количество выпавших осадков за период времени, мм. При наведении курсора мыши на число - период времени, за который выпало указанное количество осадков.
R24 - Количество осадков - Количество выпавших осадков за 24 часа, мм.
S - Снежный покров - Высота снежного покрова, см. При наведении курсора мыши на число - состояние снежного покрова и степень покрытия местности в баллах.